EW7351 Weather Reports


Display with metric or nautical units.
time (UTC)temp
F
wind
direction
speed
MPH
gust
MPH
rain 1hr
in
rain 24hr
in
rain mn
in
humidity
%
barometer
mb
20260831232053 100 127 2.0 7.0 0.00 0.00 0.00 25 1012.0
20260831231527 100 158 2.0 9.0 0.00 0.00 0.00 26 1011.9
20260831231223 100 135 2.0 6.0 0.00 0.00 0.00 25 1012.0
20260831230435 100 218 3.0 7.0 0.00 0.00 0.00 25 1012.0
20260831225907 101 141 3.0 8.0 0.00 0.00 0.00 24 1012.1
20260831225403 101 134 3.0 8.0 0.00 0.00 0.00 24 1012.1
20260831224838 101 176 3.0 9.0 0.00 0.00 0.00 24 1012.2
20260831224309 101 233 2.0 9.0 0.00 0.00 0.00 24 1012.2
20260831223807 101 158 2.0 6.0 0.00 0.00 0.00 24 1012.2
20260831223303 101 107 3.0 6.0 0.00 0.00 0.00 24 1012.3
20260831222802 101 232 3.0 7.0 0.00 0.00 0.00 24 1012.3
20260831222232 101 136 2.0 7.0 0.00 0.00 0.00 25 1012.3
20260831221953 101 113 2.0 6.0 0.00 0.00 0.00 25 1012.4
20260831221223 101 115 3.0 8.0 0.00 0.00 0.00 24 1012.4
20260831220722 101 117 3.0 9.0 0.00 0.00 0.00 24 1012.4
20260831220154 101 152 3.0 8.0 0.00 0.00 0.00 24 1012.5
20260831215651 102 222 3.0 7.0 0.00 0.00 0.00 24 1012.5
20260831215120 101 119 3.0 7.0 0.00 0.00 0.00 24 1012.5
20260831214556 101 94 4.0 9.0 0.00 0.00 0.00 25 1012.6
20260831214029 101 215 3.0 9.0 0.00 0.00 0.00 24 1012.6
20260831213501 101 159 3.0 8.0 0.00 0.00 0.00 24 1012.7
20260831212959 101 161 2.0 6.0 0.00 0.00 0.00 25 1012.7
20260831212654 101 129 3.0 10.0 0.00 0.00 0.00 26 1012.8
20260831211905 101 126 3.0 10.0 0.00 0.00 0.00 26 1012.8
20260831211404 101 208 4.0 10.0 0.00 0.00 0.00 24 1012.9
20260831210855 101 146 3.0 10.0 0.00 0.00 0.00 25 1013.0
20260831210354 101 229 3.0 8.0 0.00 0.00 0.00 26 1013.0
20260831205828 100 120 4.0 10.0 0.00 0.00 0.00 26 1013.1
20260831205544 101 122 4.0 11.0 0.00 0.00 0.00 26 1013.2
20260831204818 101 147 3.0 11.0 0.00 0.00 0.00 26 1013.2
20260831204249 101 126 4.0 9.0 0.00 0.00 0.00 26 1013.4
20260831203747 101 135 3.0 9.0 0.00 0.00 0.00 26 1013.4
20260831203244 101 207 4.0 10.0 0.00 0.00 0.00 25 1013.5
20260831202718 101 109 3.0 11.0 0.00 0.00 0.00 25 1013.5
20260831202203 102 123 2.0 10.0 0.00 0.00 0.00 25 1013.6
20260831201703 101 114 4.0 10.0 0.00 0.00 0.00 24 1013.7
20260831201203 100 247 4.0 10.0 0.00 0.00 0.00 26 1013.7
20260831200701 101 148 3.0 10.0 0.00 0.00 0.00 26 1013.7
20260831200201 101 186 4.0 10.0 0.00 0.00 0.00 25 1013.9
20260831195915 101 250 3.0 10.0 0.00 0.00 0.00 27 1014.0
20260831195152 101 165 3.0 10.0 0.00 0.00 0.00 26 1014.1
20260831194649 101 107 4.0 8.0 0.00 0.00 0.00 27 1014.1
20260831194146 100 230 5.0 11.0 0.00 0.00 0.00 30 1014.2
20260831193621 100 210 4.0 11.0 0.00 0.00 0.00 29 1014.3
20260831193055 100 134 4.0 10.0 0.00 0.00 0.00 29 1014.4
20260831192530 100 221 4.0 9.0 0.00 0.00 0.00 30 1014.4
20260831192001 100 231 4.0 9.0 0.00 0.00 0.00 30 1014.5
20260831191500 100 110 4.0 9.0 0.00 0.00 0.00 31 1014.6
20260831190931 100 77 4.0 9.0 0.00 0.00 0.00 31 1014.5
20260831190427 100 214 4.0 9.0 0.00 0.00 0.00 31 1014.5
20260831185925 99 115 4.0 13.0 0.00 0.00 0.00 31 1014.6
20260831185424 99 159 4.0 13.0 0.00 0.00 0.00 30 1014.7
20260831184855 100 105 4.0 11.0 0.00 0.00 0.00 31 1014.7
20260831184616 99 125 4.0 11.0 0.00 0.00 0.00 32 1014.7
20260831183849 99 120 4.0 11.0 0.00 0.00 0.00 31 1014.8
20260831183348 99 153 4.0 10.0 0.00 0.00 0.00 31 1014.8
20260831182818 99 117 4.0 10.0 0.00 0.00 0.00 31 1014.9
20260831182728 99 127 4.0 9.0 0.00 0.00 0.00 29 1014.9
20260831181747 99 164 2.0 9.0 0.00 0.00 0.00 33 1015.0
20260831181219 99 120 2.0 7.0 0.00 0.00 0.00 32 1015.1
20260831180717 98 115 3.0 8.0 0.00 0.00 0.00 32 1015.2
20260831180153 99 231 3.0 8.0 0.00 0.00 0.00 32 1015.3
20260831175627 98 129 2.0 8.0 0.00 0.00 0.00 32 1015.4
20260831175121 98 160 2.0 8.0 0.00 0.00 0.00 34 1015.5
20260831174619 98 249 3.0 10.0 0.00 0.00 0.00 33 1015.6
20260831174051 97 148 3.0 10.0 0.00 0.00 0.00 35 1015.6
20260831173812 97 222 2.0 8.0 0.00 0.00 0.00 36 1015.7
20260831173045 97 243 3.0 9.0 0.00 0.00 0.00 37 1015.8
20260831172545 97 246 2.0 9.0 0.00 0.00 0.00 36 1015.8
20260831172016 96 117 2.0 8.0 0.00 0.00 0.00 37 1015.9
20260831171514 96 161 4.0 9.0 0.00 0.00 0.00 37 1015.9
20260831170945 96 248 4.0 9.0 0.00 0.00 0.00 37 1016.0
20260831170441 96 213 3.0 8.0 0.00 0.00 0.00 38 1016.0
20260831165935 96 195 4.0 10.0 0.00 0.00 0.00 39 1016.0
20260831165436 95 267 3.0 10.0 0.00 0.00 0.00 40 1016.0
20260831164909 95 130 3.0 9.0 0.00 0.00 0.00 38 1016.0
20260831164903 95 165 3.0 9.0 0.00 0.00 0.00 39 1016.2
20260831163841 94 162 3.0 9.0 0.00 0.00 0.00 41 1016.1
20260831163340 94 239 4.0 9.0 0.00 0.00 0.00 40 1016.1
20260831162814 94 210 4.0 10.0 0.00 0.00 0.00 42 1016.2
20260831162251 94 172 3.0 10.0 0.00 0.00 0.00 40 1016.2
20260831161750 94 209 1.0 7.0 0.00 0.00 0.00 41 1016.2
20260831161227 94 255 2.0 7.0 0.00 0.00 0.00 41 1016.3
20260831160927 93 122 2.0 6.0 0.00 0.00 0.00 42 1016.3
20260831160428 93 155 2.0 6.0 0.00 0.00 0.00 42 1016.2
20260831155703 93 248 3.0 7.0 0.00 0.00 0.00 41 1016.3
20260831155205 92 125 4.0 9.0 0.00 0.00 0.00 44 1016.2
20260831154644 91 219 3.0 9.0 0.00 0.00 0.00 43 1016.2
20260831154145 91 142 3.0 9.0 0.00 0.00 0.00 42 1016.3
20260831153637 91 249 3.0 9.0 0.00 0.00 0.00 43 1016.3
20260831153140 91 251 4.0 9.0 0.00 0.00 0.00 43 1016.2
20260831152618 91 227 4.0 9.0 0.00 0.00 0.00 43 1016.2
20260831152118 90 224 4.0 8.0 0.00 0.00 0.00 45 1016.2
20260831151616 90 216 4.0 8.0 0.00 0.00 0.00 46 1016.1
20260831151115 90 149 3.0 8.0 0.00 0.00 0.00 46 1016.1
20260831150614 89 224 3.0 8.0 0.00 0.00 0.00 47 1016.0
20260831150537 89 208 3.0 7.0 0.00 0.00 0.00 48 1016.1
20260831145550 89 232 2.0 8.0 0.00 0.00 0.00 51 1016.0
20260831145045 88 150 2.0 8.0 0.00 0.00 0.00 51 1016.0
20260831144814 88 235 1.0 5.0 0.00 0.00 0.00 53 1015.9
20260831144021 87 231 1.0 5.0 0.00 0.00 0.00 57 1016.0
20260831143523 87 150 1.0 5.0 0.00 0.00 0.00 57 1016.0
20260831142959 86 159 1.0 5.0 0.00 0.00 0.00 57 1016.0
20260831142456 86 223 1.0 5.0 0.00 0.00 0.00 59 1016.0
20260831141952 85 203 1.0 6.0 0.00 0.00 0.00 60 1016.0
20260831141450 85 136 1.0 6.0 0.00 0.00 0.00 60 1016.0
20260831140949 84 159 1.0 4.0 0.00 0.00 0.00 61 1016.0
20260831140449 84 261 1.0 5.0 0.00 0.00 0.00 62 1016.0
20260831135949 83 176 2.0 5.0 0.00 0.00 0.00 63 1015.9
20260831135423 83 245 2.0 5.0 0.00 0.00 0.00 63 1015.9
20260831134921 83 146 1.0 5.0 0.00 0.00 0.00 65 1015.9
20260831134414 82 229 1.0 6.0 0.00 0.00 0.00 66 1015.9
20260831133850 82 201 2.0 6.0 0.00 0.00 0.00 67 1015.7
20260831133324 81 143 2.0 6.0 0.00 0.00 0.00 67 1015.7
20260831132759 81 117 3.0 6.0 0.00 0.00 0.00 68 1015.6
20260831132527 81 194 3.0 6.0 0.00 0.00 0.00 68 1015.5
20260831131734 80 240 1.0 5.0 0.00 0.00 0.00 68 1015.4
20260831131232 80 135 1.0 6.0 0.00 0.00 0.00 68 1015.4
20260831130704 80 219 1.0 6.0 0.00 0.00 0.00 69 1015.3
20260831130200 80 140 2.0 4.0 0.00 0.00 0.00 69 1015.3
20260831125659 80 174 1.0 4.0 0.00 0.00 0.00 69 1015.3
20260831125423 80 185 1.0 5.0 0.00 0.00 0.00 70 1015.2
20260831124623 79 141 1.0 5.0 0.00 0.00 0.00 70 1015.1
20260831124320 79 169 0.0 4.0 0.00 0.00 0.00 70 1015.1
20260831123557 79 219 1.0 4.0 0.00 0.00 0.00 70 1014.9
20260831123031 79 139 1.0 3.0 0.00 0.00 0.00 70 1014.8
20260831122500 79 148 1.0 4.0 0.00 0.00 0.00 70 1014.8
20260831121958 79 224 1.0 4.0 0.00 0.00 0.00 70 1014.7
20260831121713 79 257 1.0 4.0 0.00 0.00 0.00 69 1014.7
20260831120948 79 214 1.0 4.0 0.00 0.00 0.00 69 1014.6
20260831120423 78 259 1.0 4.0 0.00 0.00 0.00 69 1014.6
20260831115920 78 184 1.0 3.0 0.00 0.00 0.00 69 1014.5
20260831115418 78 251 0.0 1.0 0.00 0.00 0.00 68 1014.4
20260831114915 78 140 0.0 3.0 0.00 0.00 0.00 67 1014.4
20260831114411 78 124 0.0 2.0 0.00 0.00 0.00 67 1014.3
20260831114141 78 256 0.0 2.0 0.00 0.00 0.00 67 1014.3
20260831113625 78 127 0.0 2.0 0.00 0.00 0.00 67 1014.2
20260831112906 78 124 0.0 0.0 0.00 0.00 0.00 66 1014.1
20260831112406 79 124 0.0 1.0 0.00 0.00 0.00 66 1014.1
20260831111906 79 124 0.0 3.0 0.00 0.00 0.00 66 1014.0
20260831111338 79 124 0.0 3.0 0.00 0.00 0.00 66 1013.9
20260831110837 79 116 0.0 3.0 0.00 0.00 0.00 66 1013.9
20260831110308 79 200 0.0 3.0 0.00 0.00 0.00 65 1013.8
20260831110029 78 131 0.0 3.0 0.00 0.00 0.00 65 1013.8
20260831105530 78 117 0.0 0.0 0.00 0.00 0.00 66 1013.8
20260831105026 78 117 0.0 0.0 0.00 0.00 0.00 66 1013.9
20260831104248 78 117 0.0 0.0 0.00 0.00 0.00 65 1013.8
20260831103751 78 117 0.0 0.0 0.00 0.00 0.00 65 1013.8
20260831103224 78 117 0.0 0.0 0.00 0.00 0.00 65 1013.8
20260831102657 79 117 0.0 0.0 0.00 0.00 0.00 64 1013.8
20260831102154 79 117 0.0 0.0 0.00 0.00 0.00 64 1013.8
20260831101852 79 117 0.0 0.0 0.00 0.00 0.00 64 1013.8
20260831101130 79 117 0.0 0.0 0.00 0.00 0.00 63 1013.8
20260831100824 80 117 0.0 0.0 0.00 0.00 0.00 62 1013.8
20260831095532 80 117 0.0 0.0 0.00 0.00 0.00 61 1013.8
20260831095028 80 208 0.0 0.0 0.00 0.00 0.00 61 1013.8
20260831094503 80 212 0.0 1.0 0.00 0.00 0.00 60 1013.8
20260831094000 80 212 0.0 1.0 0.00 0.00 0.00 60 1013.7
20260831093459 81 152 0.0 0.0 0.00 0.00 0.00 59 1013.7
20260831092930 81 152 0.0 0.0 0.00 0.00 0.00 58 1013.7
20260831092428 82 152 0.0 0.0 0.00 0.00 0.00 58 1013.6
20260831091900 82 152 0.0 0.0 0.00 0.00 0.00 57 1013.5
20260831091359 82 152 0.0 1.0 0.00 0.00 0.00 56 1013.5
20260831090830 83 152 0.0 1.0 0.00 0.00 0.00 55 1013.4
20260831090328 83 152 1.0 3.0 0.00 0.00 0.00 54 1013.4
20260831090050 84 149 1.0 4.0 0.00 0.00 0.00 54 1013.4
20260831085549 84 212 1.0 5.0 0.00 0.00 0.00 54 1013.4
20260831084751 84 216 0.0 5.0 0.00 0.00 0.00 53 1013.5
20260831084225 84 131 0.0 4.0 0.00 0.00 0.00 52 1013.3
20260831083659 84 127 1.0 4.0 0.00 0.00 0.00 52 1013.3
20260831083157 85 169 2.0 4.0 0.00 0.00 0.00 51 1013.3
20260831082655 85 210 3.0 6.0 0.00 0.00 0.00 51 1013.2
20260831082126 85 171 2.0 7.0 0.00 0.00 0.00 51 1013.2
20260831081624 85 200 2.0 6.0 0.00 0.00 0.00 51 1013.3
20260831081055 85 218 2.0 6.0 0.00 0.00 0.00 50 1013.3
20260831080555 85 156 2.0 6.0 0.00 0.00 0.00 50 1013.1
20260831080026 85 233 2.0 6.0 0.00 0.00 0.00 49 1013.1
20260831080009 85 149 2.0 6.0 0.00 0.00 0.00 50 1013.0
20260831075020 84 232 2.0 7.0 0.00 0.00 0.00 50 1013.0
20260831074519 84 131 2.0 7.0 0.00 0.00 0.00 50 1013.1
20260831073950 84 219 1.0 6.0 0.00 0.00 0.00 50 1013.0
20260831073448 83 243 1.0 6.0 0.00 0.00 0.00 52 1013.0
20260831073147 83 233 0.0 4.0 0.00 0.00 0.00 53 1013.0
20260831072646 83 231 0.0 2.0 0.00 0.00 0.00 54 1013.0
20260831071917 83 135 0.0 1.0 0.00 0.00 0.00 54 1013.0
20260831071411 83 218 0.0 1.0 0.00 0.00 0.00 53 1012.9
20260831071131 83 218 0.0 0.0 0.00 0.00 0.00 53 1012.9
20260831070346 83 218 0.0 0.0 0.00 0.00 0.00 52 1013.0
20260831065816 83 160 0.0 0.0 0.00 0.00 0.00 52 1013.0
20260831065538 83 160 0.0 0.0 0.00 0.00 0.00 52 1013.0
20260831064810 83 160 0.0 1.0 0.00 0.00 0.00 53 1013.1
20260831064310 83 169 0.0 1.0 0.00 0.00 0.00 53 1013.1
20260831063804 82 252 0.0 1.0 0.00 0.00 0.00 54 1013.2
20260831063304 82 210 0.0 1.0 0.00 0.00 0.00 55 1013.1
20260831063012 82 236 0.0 1.0 0.00 0.00 0.00 55 1013.0
20260831062253 82 236 0.0 1.0 0.00 0.00 0.00 55 1013.0
20260831061724 82 236 0.0 0.0 0.00 0.00 0.00 55 1013.0
20260831061224 82 236 0.0 0.0 0.00 0.00 0.00 54 1013.0
20260831060655 82 236 0.0 0.0 0.00 0.00 0.00 53 1013.1
20260831060634 83 236 0.0 0.0 0.00 0.00 0.00 53 1013.1
20260831055624 83 236 0.0 0.0 0.00 0.00 0.00 52 1013.1
20260831055100 83 236 0.0 0.0 0.00 0.00 0.00 51 1013.1
20260831054532 84 236 0.0 0.0 0.00 0.00 0.00 51 1013.2
20260831054030 85 236 0.0 0.0 0.00 0.00 0.00 49 1013.1
20260831053502 85 236 0.0 0.0 0.00 0.00 0.00 48 1013.1
20260831053000 85 236 0.0 1.0 0.00 0.00 0.00 47 1013.1
20260831052914 86 236 0.0 1.0 0.00 0.00 0.00 47 1013.0
20260831052421 86 236 0.0 1.0 0.00 0.00 0.00 47 1012.9
20260831051646 86 165 0.0 1.0 0.00 0.00 0.00 47 1012.9
20260831050923 85 146 0.0 1.0 0.00 0.00 0.00 47 1012.9
20260831050359 85 153 0.0 3.0 0.00 0.00 0.00 48 1012.9
20260831045843 84 215 0.0 2.0 0.00 0.00 0.00 49 1012.9
20260831045343 83 152 0.0 1.0 0.00 0.00 0.00 51 1012.9
20260831044839 83 152 0.0 1.0 0.00 0.00 0.00 52 1012.9
20260831044555 83 151 0.0 0.0 0.00 0.00 0.00 52 1012.9
20260831043838 83 151 0.0 0.0 0.00 0.00 0.00 51 1012.8
20260831043333 83 151 0.0 0.0 0.00 0.00 0.00 51 1012.8
20260831042814 83 151 0.0 0.0 0.00 0.00 0.00 50 1012.9
20260831042307 84 151 0.0 0.0 0.00 0.00 0.00 49 1012.8
20260831041805 85 151 0.0 0.0 0.00 0.00 0.00 49 1012.8
20260831041305 85 151 0.0 0.0 0.00 0.00 0.00 48 1012.8
20260831040800 86 150 0.0 0.0 0.00 0.00 0.00 46 1012.8
20260831040234 86 151 0.0 0.0 0.00 0.00 0.00 45 1012.8
20260831035731 87 151 0.0 0.0 0.00 0.00 0.00 45 1012.7
20260831035206 87 151 0.0 1.0 0.00 0.00 0.00 44 1012.7
20260831034636 87 243 0.0 1.0 0.00 0.00 0.00 45 1012.6
20260831034333 87 131 0.0 0.0 0.00 0.00 0.00 45 1012.5
20260831033543 87 131 0.0 0.0 0.00 0.00 0.00 45 1012.5
20260831033018 87 131 0.0 0.0 0.00 0.00 0.00 45 1012.6
20260831032450 87 131 0.0 0.0 0.00 0.00 0.00 45 1012.6
20260831031945 88 131 0.0 0.0 0.00 0.00 0.00 45 1012.6
20260831031442 88 131 0.0 0.0 0.00 0.00 0.00 45 1012.6
20260831030934 88 131 0.0 0.0 0.00 0.00 0.00 44 1012.6
20260831030429 88 131 0.0 0.0 0.00 0.00 0.00 45 1012.6
20260831025929 88 131 0.0 0.0 0.00 0.00 0.00 46 1012.5
20260831025427 89 131 0.0 0.0 0.00 0.00 0.00 46 1012.5
20260831024923 89 131 0.0 0.0 0.00 0.00 0.00 46 1012.4
20260831024421 89 131 0.0 0.0 0.00 0.00 0.00 46 1012.3
20260831023855 89 131 0.0 0.0 0.00 0.00 0.00 46 1012.2
20260831023354 89 131 0.0 2.0 0.00 0.00 0.00 46 1012.2
20260831022829 89 131 0.0 1.0 0.00 0.00 0.00 45 1012.2
20260831022302 90 131 0.0 1.0 0.00 0.00 0.00 45 1012.1
20260831021749 90 131 0.0 1.0 0.00 0.00 0.00 45 1012.0
20260831021252 90 131 0.0 1.0 0.00 0.00 0.00 44 1011.9
20260831020747 90 131 0.0 1.0 0.00 0.00 0.00 44 1011.7
20260831020246 91 131 0.0 1.0 0.00 0.00 0.00 43 1011.7
20260831015719 91 131 0.0 1.0 0.00 0.00 0.00 43 1011.6
20260831015434 91 131 0.0 2.0 0.00 0.00 0.00 42 1011.6
20260831014933 91 131 0.0 1.0 0.00 0.00 0.00 41 1011.5
20260831014409 92 120 0.0 2.0 0.00 0.00 0.00 39 1011.4
20260831013642 92 131 0.0 2.0 0.00 0.00 0.00 39 1011.4
20260831013127 92 132 1.0 4.0 0.00 0.00 0.00 38 1011.3
20260831012626 92 107 1.0 4.0 0.00 0.00 0.00 37 1011.4
20260831012128 93 123 1.0 4.0 0.00 0.00 0.00 36 1011.3
20260831011559 93 149 1.0 4.0 0.00 0.00 0.00 36 1011.3
20260831011056 93 104 1.0 4.0 0.00 0.00 0.00 36 1011.2
20260831010553 93 134 0.0 3.0 0.00 0.00 0.00 37 1011.3
20260831010051 93 131 0.0 3.0 0.00 0.00 0.00 37 1011.2
20260831005525 94 160 0.0 3.0 0.00 0.00 0.00 36 1011.1
20260831004959 94 118 0.0 2.0 0.00 0.00 0.00 35 1011.1
20260831004434 95 155 0.0 2.0 0.00 0.00 0.00 34 1011.1
20260831003905 95 150 1.0 6.0 0.00 0.00 0.00 33 1011.1
20260831003404 96 160 1.0 6.0 0.00 0.00 0.00 32 1011.1
20260831002859 96 134 1.0 4.0 0.00 0.00 0.00 31 1011.1
20260831002359 97 120 1.0 4.0 0.00 0.00 0.00 30 1011.1
20260831001901 97 120 2.0 7.0 0.00 0.00 0.00 30 1011.0
20260831001257 97 120 2.0 7.0 0.00 0.00 0.00 29 1011.1
20260831000754 97 124 2.0 7.0 0.00 0.00 0.00 29 1011.1
20260831000454 97 114 2.0 8.0 0.00 0.00 0.00 30 1011.2
20260830235929 97 121 3.0 8.0 0.00 0.00 0.00 30 1011.2
20260830235359 98 141 3.0 8.0 0.00 0.00 0.00 29 1011.3
20260830234633 98 147 3.0 8.0 0.00 0.00 0.00 29 1011.2
20260830234358 98 125 2.0 6.0 0.00 0.00 0.00 29 1011.2
20260830233603 98 193 1.0 5.0 0.00 0.00 0.00 29 1011.2
20260830233101 97 158 2.0 7.0 0.00 0.00 0.00 30 1011.3
20260830232533 97 142 3.0 7.0 0.00 0.00 0.00 30 1011.4